QPF
0.00 0.00 0.00 0.00 0.00 0.00 0.01 0.00 0.01 0.01 0.02 0.05 0.12 0.13 0.12 0.07 0.04 0.03 0.01 0.01 0.01 0.00 0.00 0.00 0.01 0.00 0.00 0.00 0.00 0.00 0.00 0.00 0.00 0.00 0.00 0.00 0.00 0.00 0.00 0.00 0.00 0.00 0.00 0.00 0.00 0.00 0.00 0.00 0.00
0.00 0.00 0.00 0.00 0.00 0.00 0.01 0.01 0.02 0.03 0.03 0.04 0.10 0.12 0.06 0.05 0.03 0.02 0.01 0.01 0.00 0.00 0.00 0.00 0.01 0.01 0.00 0.00 0.00 0.00 0.00 0.00 0.00 0.01 0.00 0.00 0.00 0.00 0.00 0.01 0.00 0.00 0.00 0.00 0.00 0.00 0.00 0.00 0.01
0.00 0.00 0.00 0.00 0.00 0.00 0.00 0.01 0.02 0.03 0.04 0.06 0.10 0.09 0.06 0.05 0.05 0.03 0.02 0.01 0.00 0.00 0.00 0.00 0.01 0.01 0.01 0.00 0.00 0.00 0.00 0.00 0.00 0.00 0.01 0.00 0.00 0.00 0.01 0.01 0.00 0.00 0.00 0.00 0.00 0.00 0.00 0.00 0.01
0.00 0.00 0.00 0.00 0.00 0.00 0.00 0.01 0.03 0.04 0.06 0.08 0.10 0.08 0.05 0.05 0.06 0.05 0.03 0.02 0.01 0.01 0.00 0.00 0.00 0.00 0.00 0.00 0.01 0.01 0.01 0.00 0.00 0.00 0.00 0.00 0.00 0.00 0.00 0.00 0.00 0.00 0.00 0.00 0.00 0.00 0.00 0.01 0.01
0.00 0.00 0.00 0.00 0.00 0.00 0.00 0.01 0.02 0.03 0.04 0.06 0.07 0.06 0.05 0.05 0.05 0.04 0.03 0.01 0.01 0.01 0.00 0.00 0.01 0.01 0.00 0.00 0.01 0.01 0.01 0.00 0.00 0.00 0.00 0.00 0.00 0.00 0.00 0.00 0.00 0.00 0.00 0.00 0.00 0.01 0.01 0.01 0.01
0.00 0.00 0.00 0.00 0.00 0.00 0.00 0.00 0.01 0.02 0.03 0.04 0.04 0.05 0.05 0.05 0.06 0.04 0.03 0.01 0.01 0.01 0.00 0.00 0.00 0.00 0.01 0.01 0.01 0.01 0.01 0.00 0.00 0.00 0.00 0.00 0.01 0.00 0.00 0.00 0.00 0.00 0.00 0.01 0.01 0.01 0.01 0.01 0.01
0.00 0.00 0.00 0.00 0.00 0.00 0.01 0.01 0.01 0.02 0.04 0.04 0.04 0.05 0.04 0.04 0.05 0.04 0.04 0.02 0.01 0.01 0.01 0.00 0.00 0.01 0.01 0.00 0.01 0.01 0.00 0.00 0.00 0.00 0.00 0.00 0.01 0.00 0.00 0.00 0.00 0.01 0.01 0.01 0.02 0.02 0.01 0.01 0.02
0.00 0.00 0.00 0.00 0.00 0.01 0.01 0.02 0.02 0.03 0.03 0.03 0.03 0.04 0.04 0.03 0.04 0.04 0.02 0.02 0.01 0.01 0.01 0.01 0.01 0.01 0.01 0.01 0.01 0.01 0.01 0.00 0.00 0.01 0.01 0.01 0.01 0.01 0.01 0.01 0.01 0.02 0.02 0.03 0.03 0.03 0.03 0.02 0.02
0.00 0.00 0.00 0.00 0.00 0.00 0.01 0.01 0.02 0.03 0.03 0.02 0.02 0.02 0.04 0.04 0.04 0.03 0.02 0.02 0.01 0.01 0.01 0.01 0.01 0.01 0.01 0.01 0.01 0.01 0.01 0.01 0.01 0.00 0.00 0.00 0.00 0.00 0.00 0.01 0.02 0.02 0.02 0.02 0.03 0.03 0.03 0.04 0.04
0.00 0.00 0.00 0.00 0.00 0.01 0.01 0.01 0.01 0.02 0.03 0.03 0.02 0.02 0.03 0.04 0.05 0.06 0.05 0.05 0.03 0.02 0.02 0.02 0.02 0.01 0.01 0.01 0.00 0.00 0.00 0.01 0.00 0.01 0.01 0.00 0.00 0.00 0.01 0.01 0.01 0.01 0.03 0.03 0.03 0.04 0.04 0.04 0.03
0.00 0.00 0.00 0.00 0.00 0.01 0.01 0.01 0.02 0.03 0.04 0.04 0.03 0.02 0.03 0.04 0.07 0.09 0.09 0.08 0.08 0.04 0.02 0.01 0.01 0.02 0.02 0.01 0.01 0.01 0.02 0.02 0.01 0.01 0.01 0.01 0.00 0.00 0.00 0.00 0.00 0.02 0.03 0.03 0.03 0.03 0.03 0.02 0.02
0.00 0.00 0.00 0.00 0.00 0.00 0.01 0.01 0.02 0.04 0.06 0.06 0.04 0.03 0.04 0.04 0.03 0.05 0.07 0.09 0.09 0.09 0.05 0.03 0.02 0.02 0.01 0.01 0.01 0.01 0.02 0.02 0.01 0.01 0.01 0.01 0.01 0.01 0.01 0.01 0.02 0.03 0.03 0.03 0.03 0.02 0.02 0.01 0.02
0.00 0.00 0.00 0.01 0.01 0.01 0.01 0.02 0.02 0.03 0.04 0.04 0.03 0.03 0.03 0.03 0.03 0.03 0.03 0.06 0.08 0.10 0.09 0.05 0.04 0.03 0.02 0.01 0.01 0.01 0.02 0.02 0.02 0.02 0.01 0.02 0.03 0.04 0.04 0.04 0.04 0.04 0.03 0.03 0.03 0.02 0.02 0.02 0.02
0.00 0.00 0.00 0.01 0.01 0.01 0.01 0.02 0.02 0.03 0.02 0.03 0.03 0.02 0.03 0.04 0.04 0.03 0.03 0.04 0.05 0.08 0.09 0.11 0.08 0.05 0.04 0.04 0.04 0.03 0.03 0.04 0.04 0.04 0.03 0.04 0.06 0.07 0.08 0.08 0.06 0.05 0.03 0.03 0.03 0.03 0.03 0.03 0.02
0.01 0.01 0.01 0.02 0.01 0.01 0.01 0.01 0.01 0.02 0.02 0.03 0.03 0.02 0.03 0.03 0.03 0.03 0.06 0.09 0.08 0.09 0.10 0.16 0.15 0.12 0.09 0.09 0.09 0.07 0.06 0.06 0.05 0.05 0.06 0.07 0.08 0.09 0.09 0.09 0.08 0.06 0.03 0.03 0.04 0.04 0.04 0.03 0.03
0.01 0.01 0.01 0.01 0.01 0.01 0.01 0.02 0.01 0.01 0.02 0.03 0.02 0.03 0.03 0.03 0.03 0.04 0.05 0.09 0.10 0.11 0.13 0.17 0.21 0.22 0.17 0.13 0.13 0.10 0.08 0.08 0.06 0.06 0.07 0.07 0.07 0.06 0.07 0.07 0.05 0.03 0.02 0.04 0.05 0.04 0.04 0.04 0.05
0.01 0.01 0.01 0.01 0.01 0.01 0.01 0.01 0.01 0.01 0.02 0.03 0.02 0.02 0.03 0.03 0.04 0.05 0.05 0.06 0.09 0.12 0.15 0.20 0.23 0.21 0.17 0.14 0.13 0.11 0.10 0.10 0.08 0.07 0.07 0.07 0.07 0.07 0.07 0.06 0.04 0.04 0.04 0.05 0.06 0.04 0.04 0.03 0.04
0.01 0.01 0.01 0.01 0.01 0.01 0.01 0.01 0.01 0.02 0.02 0.03 0.02 0.03 0.04 0.05 0.06 0.06 0.07 0.10 0.15 0.19 0.20 0.18 0.16 0.15 0.14 0.13 0.11 0.11 0.09 0.08 0.08 0.09 0.09 0.07 0.06 0.07 0.06 0.05 0.05 0.04 0.04 0.04 0.05 0.04 0.03 0.03 0.03
0.01 0.00 0.01 0.01 0.01 0.01 0.00 0.01 0.02 0.03 0.04 0.04 0.03 0.04 0.05 0.05 0.07 0.08 0.09 0.16 0.19 0.17 0.15 0.12 0.11 0.11 0.11 0.08 0.09 0.11 0.09 0.09 0.08 0.07 0.06 0.05 0.05 0.06 0.05 0.07 0.08 0.07 0.05 0.05 0.04 0.04 0.03 0.03 0.03
0.01 0.00 0.01 0.02 0.02 0.01 0.01 0.01 0.02 0.03 0.03 0.05 0.06 0.06 0.06 0.06 0.07 0.08 0.10 0.10 0.11 0.08 0.08 0.09 0.10 0.10 0.08 0.07 0.07 0.06 0.07 0.07 0.05 0.04 0.04 0.04 0.04 0.05 0.05 0.05 0.08 0.09 0.07 0.05 0.04 0.04 0.04 0.03 0.03
0.00 0.01 0.01 0.02 0.02 0.02 0.01 0.01 0.01 0.02 0.02 0.05 0.08 0.09 0.10 0.08 0.07 0.06 0.06 0.07 0.08 0.08 0.07 0.07 0.08 0.09 0.08 0.07 0.05 0.04 0.04 0.04 0.05 0.04 0.04 0.05 0.05 0.05 0.05 0.06 0.07 0.08 0.07 0.05 0.04 0.05 0.04 0.03 0.03
0.00 0.01 0.01 0.02 0.02 0.01 0.01 0.01 0.01 0.01 0.02 0.02 0.07 0.07 0.06 0.06 0.05 0.04 0.04 0.05 0.07 0.07 0.07 0.08 0.08 0.07 0.07 0.06 0.04 0.03 0.03 0.05 0.05 0.04 0.02 0.02 0.03 0.03 0.04 0.06 0.07 0.08 0.06 0.04 0.04 0.04 0.03 0.02 0.02
0.01 0.01 0.01 0.01 0.01 0.00 0.00 0.01 0.02 0.02 0.01 0.01 0.03 0.04 0.04 0.04 0.04 0.03 0.02 0.05 0.07 0.08 0.07 0.07 0.07 0.06 0.06 0.05 0.04 0.03 0.04 0.04 0.04 0.02 0.01 0.01 0.01 0.01 0.02 0.03 0.05 0.05 0.04 0.04 0.04 0.03 0.03 0.02 0.01
0.00 0.01 0.01 0.00 0.00 0.00 0.00 0.01 0.01 0.01 0.01 0.01 0.01 0.02 0.03 0.02 0.01 0.01 0.02 0.05 0.09 0.09 0.08 0.07 0.05 0.05 0.05 0.05 0.04 0.04 0.03 0.03 0.02 0.03 0.02 0.01 0.01 0.01 0.01 0.01 0.03 0.03 0.03 0.04 0.05 0.04 0.03 0.02 0.01
0.00 0.00 0.00 0.00 0.00 0.00 0.00 0.00 0.00 0.01 0.01 0.01 0.01 0.01 0.02 0.01 0.01 0.02 0.03 0.05 0.07 0.08 0.09 0.09 0.08 0.08 0.07 0.05 0.04 0.03 0.02 0.01 0.02 0.02 0.02 0.02 0.01 0.02 0.03 0.03 0.03 0.03 0.04 0.05 0.05 0.04 0.03 0.02 0.03
0.00 0.00 0.00 0.00 0.00 0.00 0.00 0.01 0.01 0.02 0.01 0.02 0.01 0.02 0.02 0.02 0.01 0.02 0.03 0.05 0.07 0.08 0.09 0.10 0.10 0.10 0.09 0.07 0.05 0.04 0.04 0.02 0.02 0.02 0.02 0.03 0.03 0.03 0.05 0.05 0.05 0.04 0.04 0.03 0.03 0.02 0.02 0.03 0.04
0.00 0.00 0.00 0.00 0.00 0.00 0.01 0.01 0.01 0.02 0.02 0.02 0.01 0.02 0.02 0.02 0.02 0.02 0.03 0.06 0.08 0.09 0.10 0.10 0.10 0.09 0.10 0.10 0.07 0.05 0.05 0.04 0.03 0.02 0.02 0.03 0.04 0.06 0.07 0.07 0.07 0.06 0.05 0.04 0.03 0.03 0.03 0.04 0.05
0.00 0.00 0.00 0.01 0.00 0.00 0.00 0.01 0.01 0.02 0.05 0.03 0.02 0.02 0.03 0.03 0.02 0.03 0.04 0.05 0.06 0.07 0.06 0.05 0.05 0.06 0.08 0.08 0.05 0.05 0.06 0.05 0.05 0.05 0.05 0.06 0.09 0.13 0.15 0.14 0.11 0.08 0.06 0.04 0.03 0.02 0.03 0.03 0.03
0.01 0.01 0.00 0.01 0.01 0.01 0.00 0.00 0.01 0.01 0.03 0.04 0.02 0.03 0.05 0.03 0.02 0.03 0.04 0.03 0.03 0.03 0.02 0.02 0.03 0.04 0.05 0.05 0.05 0.07 0.09 0.10 0.08 0.06 0.07 0.09 0.12 0.13 0.11 0.08 0.04 0.03 0.03 0.03 0.02 0.01 0.01 0.01 0.02
0.01 0.01 0.01 0.01 0.01 0.01 0.00 0.00 0.01 0.01 0.01 0.01 0.01 0.04 0.06 0.04 0.02 0.02 0.03 0.03 0.02 0.02 0.01 0.02 0.02 0.03 0.03 0.04 0.06 0.10 0.10 0.09 0.08 0.06 0.06 0.07 0.07 0.07 0.05 0.03 0.03 0.02 0.03 0.03 0.03 0.02 0.02 0.01 0.01
MSLP
1010.70 1011.77 1012.94 1014.01 1014.76 1015.06 1014.87 1014.25 1013.37 1012.44 1011.67 1011.21 1011.11 1011.32 1011.74 1012.18 1012.49 1012.56 1012.35 1011.93 1011.41 1010.93 1010.64 1010.61 1010.87 1011.36 1011.97 1012.59 1013.13 1013.54 1013.79 1013.94 1014.04 1014.17 1014.35 1014.62 1014.94 1015.28 1015.59 1015.84 1016.00 1016.09 1016.13 1016.14 1016.15 1016.17 1016.20 1016.23 1016.23
1011.23 1012.40 1013.59 1014.57 1015.15 1015.22 1014.77 1013.91 1012.82 1011.75 1010.91 1010.43 1010.35 1010.63 1011.11 1011.63 1012.00 1012.12 1011.97 1011.59 1011.13 1010.71 1010.47 1010.50 1010.81 1011.35 1012.00 1012.67 1013.25 1013.70 1014.00 1014.19 1014.34 1014.48 1014.67 1014.92 1015.20 1015.49 1015.74 1015.92 1016.03 1016.07 1016.08 1016.08 1016.10 1016.13 1016.18 1016.22 1016.24
1011.81 1013.03 1014.17 1015.01 1015.39 1015.22 1014.55 1013.51 1012.29 1011.15 1010.30 1009.85 1009.82 1010.16 1010.69 1011.25 1011.66 1011.82 1011.71 1011.41 1011.02 1010.69 1010.54 1010.63 1010.99 1011.55 1012.21 1012.86 1013.43 1013.86 1014.16 1014.36 1014.52 1014.67 1014.87 1015.10 1015.36 1015.60 1015.79 1015.92 1015.97 1015.98 1015.96 1015.96 1015.97 1016.02 1016.08 1016.15 1016.19
1012.39 1013.58 1014.61 1015.28 1015.45 1015.09 1014.25 1013.09 1011.84 1010.72 1009.91 1009.54 1009.58 1009.97 1010.53 1011.09 1011.51 1011.69 1011.63 1011.40 1011.11 1010.88 1010.83 1011.00 1011.40 1011.95 1012.56 1013.15 1013.64 1014.01 1014.25 1014.42 1014.56 1014.72 1014.92 1015.15 1015.40 1015.61 1015.77 1015.86 1015.87 1015.85 1015.82 1015.80 1015.82 1015.88 1015.95 1016.03 1016.08
1012.91 1014.01 1014.88 1015.35 1015.33 1014.80 1013.87 1012.69 1011.49 1010.46 1009.78 1009.52 1009.64 1010.06 1010.62 1011.16 1011.56 1011.74 1011.71 1011.55 1011.36 1011.24 1011.29 1011.53 1011.95 1012.47 1013.01 1013.49 1013.86 1014.12 1014.27 1014.38 1014.50 1014.65 1014.86 1015.10 1015.35 1015.56 1015.70 1015.77 1015.76 1015.72 1015.67 1015.65 1015.68 1015.74 1015.82 1015.89 1015.95
1013.32 1014.28 1014.95 1015.22 1015.02 1014.39 1013.42 1012.31 1011.23 1010.37 1009.85 1009.72 1009.93 1010.37 1010.91 1011.40 1011.74 1011.89 1011.88 1011.78 1011.68 1011.67 1011.82 1012.12 1012.54 1013.01 1013.46 1013.82 1014.06 1014.19 1014.25 1014.30 1014.38 1014.54 1014.75 1015.02 1015.28 1015.49 1015.63 1015.68 1015.67 1015.62 1015.56 1015.54 1015.56 1015.61 1015.69 1015.75 1015.79
1013.58 1014.35 1014.81 1014.88 1014.53 1013.83 1012.90 1011.90 1011.00 1010.35 1010.03 1010.05 1010.33 1010.78 1011.28 1011.70 1011.96 1012.07 1012.06 1012.00 1011.98 1012.06 1012.29 1012.64 1013.06 1013.49 1013.84 1014.09 1014.22 1014.25 1014.23 1014.24 1014.31 1014.47 1014.70 1014.98 1015.25 1015.47 1015.61 1015.65 1015.62 1015.56 1015.50 1015.47 1015.48 1015.52 1015.58 1015.62 1015.63
1013.69 1014.25 1014.49 1014.36 1013.89 1013.16 1012.30 1011.45 1010.75 1010.32 1010.20 1010.35 1010.71 1011.16 1011.60 1011.94 1012.14 1012.19 1012.17 1012.15 1012.19 1012.35 1012.63 1013.02 1013.44 1013.83 1014.13 1014.30 1014.35 1014.32 1014.27 1014.27 1014.35 1014.52 1014.78 1015.07 1015.34 1015.55 1015.66 1015.68 1015.63 1015.55 1015.48 1015.44 1015.44 1015.46 1015.50 1015.51 1015.48
1013.64 1013.98 1014.01 1013.71 1013.15 1012.41 1011.63 1010.94 1010.44 1010.22 1010.27 1010.54 1010.95 1011.41 1011.80 1012.07 1012.21 1012.23 1012.20 1012.20 1012.30 1012.51 1012.84 1013.26 1013.68 1014.05 1014.31 1014.45 1014.48 1014.45 1014.42 1014.44 1014.55 1014.75 1015.02 1015.31 1015.56 1015.73 1015.80 1015.78 1015.70 1015.59 1015.50 1015.45 1015.43 1015.45 1015.46 1015.44 1015.38
1013.46 1013.60 1013.44 1013.00 1012.36 1011.64 1010.95 1010.40 1010.07 1010.01 1010.20 1010.57 1011.03 1011.48 1011.84 1012.08 1012.18 1012.20 1012.19 1012.22 1012.36 1012.61 1012.97 1013.40 1013.82 1014.18 1014.43 1014.58 1014.63 1014.65 1014.67 1014.75 1014.91 1015.15 1015.43 1015.69 1015.90 1016.02 1016.03 1015.95 1015.82 1015.68 1015.57 1015.50 1015.48 1015.48 1015.47 1015.42 1015.33
1013.18 1013.15 1012.84 1012.31 1011.64 1010.94 1010.33 1009.90 1009.70 1009.76 1010.04 1010.47 1010.95 1011.41 1011.77 1012.01 1012.13 1012.17 1012.21 1012.29 1012.46 1012.74 1013.11 1013.53 1013.94 1014.29 1014.55 1014.73 1014.84 1014.92 1015.03 1015.19 1015.41 1015.67 1015.94 1016.17 1016.32 1016.36 1016.31 1016.17 1015.99 1015.81 1015.68 1015.60 1015.57 1015.56 1015.54 1015.47 1015.34
1012.85 1012.71 1012.31 1011.73 1011.07 1010.42 1009.89 1009.54 1009.43 1009.56 1009.88 1010.33 1010.82 1011.29 1011.67 1011.95 1012.13 1012.24 1012.35 1012.49 1012.71 1013.00 1013.35 1013.74 1014.12 1014.45 1014.72 1014.93 1015.10 1015.27 1015.46 1015.69 1015.96 1016.23 1016.48 1016.67 1016.75 1016.73 1016.60 1016.41 1016.19 1015.99 1015.85 1015.76 1015.72 1015.70 1015.67 1015.58 1015.42
1012.51 1012.31 1011.89 1011.34 1010.73 1010.16 1009.71 1009.44 1009.37 1009.52 1009.83 1010.26 1010.74 1011.22 1011.64 1011.98 1012.26 1012.48 1012.68 1012.90 1013.15 1013.44 1013.77 1014.11 1014.43 1014.72 1014.98 1015.21 1015.43 1015.66 1015.91 1016.20 1016.49 1016.77 1016.99 1017.13 1017.15 1017.06 1016.89 1016.65 1016.42 1016.21 1016.06 1015.97 1015.93 1015.90 1015.84 1015.72 1015.54
1012.19 1012.00 1011.63 1011.17 1010.68 1010.23 1009.87 1009.65 1009.60 1009.72 1009.99 1010.37 1010.81 1011.28 1011.75 1012.17 1012.56 1012.90 1013.21 1013.51 1013.80 1014.08 1014.36 1014.63 1014.88 1015.12 1015.34 1015.56 1015.80 1016.07 1016.36 1016.67 1016.96 1017.22 1017.41 1017.49 1017.47 1017.34 1017.14 1016.90 1016.66 1016.46 1016.32 1016.23 1016.18 1016.13 1016.04 1015.89 1015.66
1011.91 1011.77 1011.53 1011.23 1010.90 1010.60 1010.35 1010.19 1010.13 1010.20 1010.38 1010.67 1011.06 1011.51 1012.00 1012.51 1013.00 1013.47 1013.89 1014.26 1014.58 1014.85 1015.08 1015.27 1015.44 1015.61 1015.78 1015.98 1016.22 1016.48 1016.78 1017.08 1017.35 1017.57 1017.71 1017.75 1017.69 1017.55 1017.35 1017.12 1016.91 1016.74 1016.61 1016.52 1016.44 1016.36 1016.23 1016.03 1015.75
1011.65 1011.63 1011.55 1011.45 1011.33 1011.20 1011.08 1010.97 1010.90 1010.88 1010.96 1011.14 1011.44 1011.85 1012.35 1012.92 1013.51 1014.08 1014.60 1015.04 1015.39 1015.65 1015.83 1015.95 1016.05 1016.15 1016.27 1016.44 1016.65 1016.90 1017.18 1017.44 1017.67 1017.84 1017.93 1017.93 1017.85 1017.71 1017.53 1017.34 1017.16 1017.02 1016.90 1016.80 1016.70 1016.56 1016.37 1016.12 1015.79
1011.41 1011.52 1011.64 1011.76 1011.87 1011.93 1011.93 1011.87 1011.77 1011.67 1011.63 1011.68 1011.87 1012.22 1012.71 1013.31 1013.98 1014.64 1015.24 1015.74 1016.11 1016.36 1016.51 1016.58 1016.62 1016.68 1016.77 1016.91 1017.11 1017.34 1017.58 1017.80 1017.97 1018.07 1018.10 1018.06 1017.96 1017.83 1017.67 1017.53 1017.39 1017.28 1017.17 1017.05 1016.90 1016.71 1016.46 1016.15 1015.78
1011.16 1011.41 1011.73 1012.08 1012.41 1012.65 1012.76 1012.74 1012.61 1012.42 1012.25 1012.17 1012.25 1012.52 1012.99 1013.61 1014.32 1015.05 1015.72 1016.26 1016.66 1016.91 1017.04 1017.10 1017.12 1017.16 1017.24 1017.39 1017.58 1017.79 1018.00 1018.16 1018.27 1018.31 1018.27 1018.18 1018.06 1017.93 1017.80 1017.68 1017.58 1017.49 1017.38 1017.24 1017.05 1016.80 1016.49 1016.13 1015.72
1010.91 1011.29 1011.80 1012.35 1012.87 1013.26 1013.47 1013.48 1013.30 1013.01 1012.71 1012.51 1012.49 1012.69 1013.13 1013.76 1014.51 1015.29 1016.00 1016.59 1017.02 1017.28 1017.41 1017.47 1017.50 1017.56 1017.67 1017.84 1018.05 1018.26 1018.44 1018.56 1018.60 1018.56 1018.46 1018.32 1018.16 1018.01 1017.89 1017.79 1017.71 1017.63 1017.51 1017.35 1017.12 1016.82 1016.47 1016.07 1015.64
1010.65 1011.16 1011.83 1012.55 1013.22 1013.73 1013.99 1013.99 1013.76 1013.37 1012.97 1012.66 1012.55 1012.70 1013.12 1013.76 1014.55 1015.37 1016.13 1016.75 1017.20 1017.49 1017.64 1017.72 1017.79 1017.89 1018.05 1018.26 1018.50 1018.73 1018.90 1018.98 1018.96 1018.85 1018.67 1018.45 1018.25 1018.07 1017.93 1017.84 1017.76 1017.67 1017.55 1017.36 1017.11 1016.78 1016.40 1015.99 1015.56
1010.41 1011.04 1011.84 1012.70 1013.47 1014.04 1014.32 1014.29 1013.99 1013.51 1013.01 1012.62 1012.45 1012.58 1013.01 1013.68 1014.51 1015.38 1016.17 1016.83 1017.30 1017.60 1017.78 1017.89 1017.99 1018.14 1018.36 1018.63 1018.91 1019.15 1019.32 1019.37 1019.29 1019.11 1018.85 1018.57 1018.29 1018.07 1017.91 1017.79 1017.70 1017.61 1017.48 1017.28 1017.02 1016.69 1016.31 1015.91 1015.50
1010.23 1010.97 1011.89 1012.83 1013.66 1014.25 1014.51 1014.41 1014.03 1013.47 1012.90 1012.46 1012.28 1012.41 1012.87 1013.59 1014.48 1015.39 1016.23 1016.91 1017.40 1017.71 1017.90 1018.02 1018.15 1018.34 1018.60 1018.91 1019.22 1019.48 1019.64 1019.67 1019.54 1019.29 1018.97 1018.61 1018.27 1017.99 1017.78 1017.64 1017.54 1017.44 1017.31 1017.12 1016.86 1016.55 1016.19 1015.81 1015.44
1010.13 1010.99 1012.00 1013.01 1013.86 1014.42 1014.62 1014.45 1013.99 1013.35 1012.73 1012.27 1012.09 1012.26 1012.78 1013.57 1014.52 1015.49 1016.37 1017.07 1017.57 1017.87 1018.05 1018.16 1018.30 1018.49 1018.76 1019.08 1019.41 1019.68 1019.83 1019.82 1019.66 1019.35 1018.96 1018.54 1018.14 1017.81 1017.56 1017.39 1017.28 1017.17 1017.04 1016.87 1016.64 1016.36 1016.04 1015.70 1015.36
1010.13 1011.10 1012.20 1013.24 1014.08 1014.60 1014.72 1014.46 1013.92 1013.22 1012.56 1012.10 1011.96 1012.19 1012.78 1013.64 1014.66 1015.69 1016.60 1017.31 1017.80 1018.09 1018.23 1018.32 1018.42 1018.59 1018.84 1019.14 1019.45 1019.70 1019.83 1019.80 1019.60 1019.26 1018.82 1018.35 1017.91 1017.54 1017.26 1017.06 1016.93 1016.83 1016.71 1016.56 1016.36 1016.11 1015.83 1015.53 1015.22
1010.21 1011.29 1012.45 1013.51 1014.33 1014.78 1014.82 1014.47 1013.85 1013.11 1012.43 1011.99 1011.89 1012.19 1012.85 1013.79 1014.87 1015.94 1016.88 1017.60 1018.07 1018.33 1018.43 1018.47 1018.52 1018.63 1018.83 1019.09 1019.36 1019.57 1019.66 1019.60 1019.38 1019.01 1018.55 1018.06 1017.59 1017.19 1016.89 1016.68 1016.54 1016.44 1016.33 1016.20 1016.03 1015.81 1015.55 1015.28 1014.99
1010.34 1011.51 1012.70 1013.76 1014.52 1014.91 1014.87 1014.45 1013.78 1013.01 1012.34 1011.92 1011.87 1012.23 1012.95 1013.95 1015.07 1016.17 1017.13 1017.85 1018.30 1018.53 1018.60 1018.58 1018.57 1018.62 1018.75 1018.94 1019.14 1019.30 1019.36 1019.27 1019.03 1018.65 1018.18 1017.69 1017.22 1016.82 1016.50 1016.29 1016.14 1016.03 1015.93 1015.80 1015.64 1015.44 1015.20 1014.93 1014.64
1010.48 1011.68 1012.86 1013.88 1014.59 1014.90 1014.80 1014.33 1013.63 1012.86 1012.21 1011.84 1011.84 1012.24 1013.01 1014.04 1015.18 1016.30 1017.25 1017.97 1018.42 1018.63 1018.67 1018.62 1018.56 1018.54 1018.60 1018.72 1018.86 1018.96 1018.97 1018.86 1018.60 1018.23 1017.78 1017.30 1016.84 1016.45 1016.14 1015.92 1015.76 1015.64 1015.52 1015.39 1015.22 1015.01 1014.76 1014.48 1014.18
1010.56 1011.72 1012.85 1013.80 1014.43 1014.67 1014.52 1014.04 1013.34 1012.61 1012.01 1011.69 1011.74 1012.18 1012.97 1014.00 1015.14 1016.25 1017.19 1017.91 1018.36 1018.57 1018.61 1018.55 1018.47 1018.42 1018.43 1018.49 1018.56 1018.61 1018.57 1018.43 1018.17 1017.81 1017.38 1016.93 1016.50 1016.13 1015.82 1015.60 1015.42 1015.27 1015.13 1014.96 1014.76 1014.52 1014.24 1013.94 1013.61
1010.53 1011.59 1012.60 1013.43 1013.97 1014.15 1013.98 1013.51 1012.87 1012.21 1011.69 1011.44 1011.54 1012.01 1012.79 1013.80 1014.91 1015.99 1016.92 1017.63 1018.09 1018.34 1018.41 1018.38 1018.31 1018.26 1018.25 1018.27 1018.29 1018.29 1018.21 1018.05 1017.78 1017.43 1017.03 1016.61 1016.21 1015.86 1015.57 1015.33 1015.13 1014.94 1014.75 1014.53 1014.28 1013.99 1013.67 1013.33 1012.97
1010.39 1011.27 1012.10 1012.79 1013.21 1013.34 1013.16 1012.74 1012.19 1011.65 1011.24 1011.09 1011.25 1011.74 1012.51 1013.48 1014.53 1015.56 1016.46 1017.16 1017.65 1017.95 1018.08 1018.11 1018.10 1018.07 1018.07 1018.07 1018.06 1018.02 1017.91 1017.72 1017.45 1017.11 1016.73 1016.35 1015.97 1015.64 1015.35 1015.10 1014.86 1014.63 1014.38 1014.10 1013.78 1013.43 1013.06 1012.68 1012.29
Thickness
5784 5785 5784 5776 5756 5737 5739 5753 5765 5771 5778 5788 5792 5788 5781 5774 5769 5768 5789 5798 5796 5792 5788 5784 5781 5778 5775 5772 5769 5767 5765 5763 5761 5759 5757 5755 5753 5752 5750 5748 5746 5745 5743 5742 5741 5739 5738 5737 5736
5781 5781 5775 5761 5739 5726 5737 5756 5763 5772 5783 5791 5792 5789 5782 5778 5784 5784 5788 5793 5793 5790 5786 5783 5780 5776 5773 5770 5767 5765 5762 5760 5758 5756 5753 5752 5750 5748 5746 5745 5743 5741 5739 5738 5737 5736 5735 5734 5733
5778 5777 5761 5745 5733 5731 5745 5762 5768 5778 5788 5789 5785 5786 5782 5779 5784 5785 5789 5791 5789 5786 5783 5781 5778 5774 5771 5768 5765 5762 5760 5757 5755 5753 5750 5749 5747 5745 5743 5741 5739 5738 5736 5734 5733 5733 5732 5731 5730
5771 5762 5751 5737 5736 5745 5756 5766 5772 5775 5782 5788 5784 5778 5782 5788 5788 5789 5790 5789 5785 5782 5780 5778 5775 5772 5769 5766 5763 5760 5757 5755 5752 5750 5747 5745 5744 5742 5740 5738 5736 5734 5733 5731 5730 5729 5728 5727 5727
5762 5748 5735 5726 5736 5750 5762 5770 5774 5772 5775 5782 5781 5773 5774 5785 5790 5790 5788 5786 5781 5778 5776 5774 5772 5769 5766 5763 5760 5757 5754 5752 5749 5747 5744 5742 5740 5738 5736 5734 5733 5731 5729 5728 5727 5726 5724 5724 5723
5745 5737 5721 5720 5736 5753 5763 5773 5774 5772 5773 5778 5778 5771 5771 5781 5784 5784 5783 5780 5779 5776 5773 5771 5768 5765 5762 5760 5757 5754 5752 5749 5746 5744 5741 5739 5737 5735 5733 5731 5729 5727 5726 5724 5723 5722 5721 5720 5720
5737 5728 5722 5729 5736 5748 5763 5773 5772 5770 5769 5774 5778 5768 5768 5775 5780 5781 5779 5775 5774 5772 5769 5767 5764 5761 5758 5756 5753 5751 5748 5746 5743 5741 5738 5736 5733 5731 5730 5728 5726 5724 5722 5721 5720 5719 5718 5717 5716
5742 5729 5726 5728 5736 5746 5764 5770 5774 5772 5770 5780 5781 5767 5765 5773 5778 5776 5774 5771 5768 5767 5765 5763 5760 5757 5755 5752 5750 5747 5745 5742 5740 5737 5735 5733 5730 5728 5726 5725 5723 5721 5719 5718 5717 5716 5715 5714 5713
5744 5721 5717 5730 5738 5749 5762 5764 5769 5777 5774 5776 5779 5778 5779 5779 5775 5770 5766 5764 5762 5762 5760 5758 5756 5753 5751 5749 5746 5744 5741 5738 5736 5733 5731 5729 5726 5724 5722 5720 5719 5717 5716 5714 5713 5712 5711 5710 5710
5733 5716 5728 5743 5750 5754 5759 5762 5765 5767 5765 5767 5771 5776 5778 5774 5770 5765 5761 5758 5757 5756 5756 5755 5752 5749 5747 5745 5742 5739 5737 5734 5731 5728 5726 5724 5721 5719 5717 5715 5714 5713 5711 5710 5709 5708 5707 5707 5706
5734 5728 5739 5749 5756 5758 5757 5761 5767 5761 5757 5765 5768 5770 5771 5768 5765 5761 5759 5757 5756 5754 5753 5751 5749 5746 5743 5741 5738 5735 5732 5729 5726 5723 5721 5718 5716 5713 5711 5710 5708 5707 5706 5704 5703 5703 5702 5702 5701
5732 5737 5744 5750 5757 5757 5757 5759 5759 5761 5765 5774 5775 5772 5768 5763 5760 5758 5756 5755 5753 5751 5748 5747 5745 5742 5739 5736 5733 5731 5728 5725 5722 5719 5716 5713 5711 5708 5705 5703 5702 5700 5699 5698 5698 5697 5696 5696 5696
5732 5738 5748 5753 5754 5756 5757 5755 5757 5760 5769 5772 5770 5767 5763 5760 5758 5757 5755 5752 5749 5746 5745 5744 5741 5738 5734 5731 5728 5726 5723 5720 5717 5714 5711 5708 5706 5702 5699 5697 5696 5695 5694 5693 5692 5691 5691 5690 5690
5735 5740 5745 5749 5751 5755 5751 5752 5753 5757 5766 5765 5763 5761 5760 5758 5756 5753 5750 5748 5745 5743 5740 5739 5735 5733 5729 5727 5723 5721 5718 5715 5713 5710 5707 5704 5701 5698 5695 5692 5690 5690 5689 5688 5687 5686 5685 5684 5684
5738 5734 5738 5744 5748 5750 5749 5741 5748 5758 5761 5758 5757 5757 5755 5754 5752 5750 5749 5746 5743 5740 5737 5733 5730 5728 5724 5721 5718 5715 5712 5709 5707 5705 5703 5699 5696 5693 5690 5687 5685 5684 5683 5682 5681 5680 5679 5678 5678
5732 5724 5720 5736 5744 5747 5740 5727 5748 5756 5755 5751 5752 5752 5749 5749 5749 5749 5747 5744 5740 5737 5733 5729 5727 5723 5719 5716 5713 5710 5707 5704 5702 5699 5696 5693 5690 5687 5684 5681 5679 5678 5676 5675 5674 5672 5671 5670 5669
5715 5709 5715 5727 5739 5740 5733 5728 5745 5752 5750 5747 5747 5747 5745 5744 5743 5743 5742 5740 5736 5733 5729 5725 5722 5719 5715 5711 5707 5705 5702 5699 5696 5693 5690 5687 5684 5681 5678 5676 5673 5672 5669 5668 5666 5664 5663 5662 5661
5707 5709 5713 5718 5732 5732 5726 5728 5741 5745 5744 5743 5743 5741 5740 5739 5739 5739 5737 5735 5731 5728 5725 5721 5717 5713 5709 5705 5701 5698 5695 5692 5689 5686 5683 5681 5678 5675 5672 5670 5667 5665 5662 5660 5658 5656 5654 5653 5653
5720 5714 5712 5720 5732 5727 5723 5725 5734 5739 5738 5736 5735 5735 5735 5735 5736 5734 5732 5730 5726 5722 5718 5715 5710 5707 5703 5698 5694 5690 5688 5685 5682 5680 5678 5675 5672 5669 5666 5663 5661 5658 5655 5653 5650 5648 5646 5645 5644
5719 5712 5712 5719 5729 5725 5718 5721 5731 5734 5734 5735 5734 5733 5732 5730 5728 5728 5726 5724 5721 5717 5713 5709 5705 5701 5698 5694 5690 5686 5683 5679 5676 5673 5671 5668 5665 5662 5660 5656 5653 5651 5648 5645 5643 5640 5638 5636 5635
5719 5715 5716 5716 5721 5721 5716 5713 5722 5730 5732 5733 5733 5733 5731 5729 5726 5724 5721 5718 5716 5712 5709 5706 5701 5696 5692 5688 5684 5680 5676 5672 5669 5666 5663 5661 5658 5655 5653 5650 5647 5644 5641 5638 5635 5633 5630 5628 5626
5714 5728 5725 5719 5708 5699 5707 5690 5711 5719 5722 5726 5728 5728 5727 5726 5724 5721 5718 5715 5712 5708 5704 5700 5695 5691 5687 5683 5679 5674 5670 5665 5662 5659 5657 5654 5651 5649 5646 5643 5640 5637 5634 5631 5629 5627 5624 5622 5619
5726 5730 5723 5716 5705 5695 5697 5689 5699 5713 5714 5720 5725 5727 5727 5725 5722 5719 5716 5713 5708 5703 5699 5694 5689 5685 5681 5677 5673 5668 5664 5660 5656 5653 5650 5647 5645 5642 5640 5637 5634 5631 5628 5626 5623 5621 5619 5616 5614
5731 5721 5712 5700 5692 5682 5692 5686 5689 5702 5712 5718 5723 5725 5725 5723 5719 5716 5713 5708 5703 5698 5693 5689 5685 5679 5675 5671 5666 5662 5658 5653 5650 5647 5644 5641 5638 5635 5633 5630 5627 5624 5622 5620 5617 5615 5614 5612 5610
5722 5702 5683 5680 5671 5676 5692 5686 5690 5712 5719 5719 5720 5722 5721 5718 5715 5711 5707 5702 5698 5693 5688 5684 5679 5675 5670 5665 5661 5657 5653 5649 5645 5641 5637 5634 5631 5628 5626 5623 5621 5618 5616 5614 5612 5610 5608 5607 5605
5714 5705 5681 5671 5666 5673 5686 5683 5699 5717 5719 5720 5719 5718 5717 5713 5710 5707 5703 5698 5694 5688 5684 5679 5674 5669 5665 5660 5656 5652 5648 5644 5640 5636 5632 5629 5625 5623 5620 5617 5615 5613 5611 5609 5606 5604 5603 5602 5600
5711 5700 5700 5680 5674 5666 5674 5688 5702 5714 5714 5714 5713 5712 5709 5707 5705 5702 5699 5694 5690 5684 5679 5674 5670 5665 5661 5657 5653 5648 5644 5640 5635 5631 5627 5624 5621 5618 5616 5613 5610 5608 5606 5603 5601 5599 5598 5597 5596
5715 5701 5685 5674 5663 5658 5669 5679 5684 5699 5702 5705 5705 5706 5705 5702 5699 5697 5694 5690 5686 5680 5675 5670 5666 5661 5657 5653 5648 5645 5641 5636 5632 5628 5624 5620 5617 5614 5612 5610 5607 5604 5602 5599 5597 5595 5594 5593 5593
5703 5696 5682 5669 5668 5658 5654 5671 5699 5698 5701 5699 5700 5700 5699 5696 5693 5690 5688 5685 5681 5676 5672 5666 5662 5658 5654 5650 5645 5640 5636 5633 5629 5625 5621 5617 5614 5610 5608 5606 5603 5600 5598 5596 5593 5592 5591 5591 5590
5704 5695 5680 5669 5665 5659 5654 5668 5702 5699 5698 5696 5695 5696 5694 5692 5690 5687 5683 5680 5675 5671 5668 5663 5659 5655 5651 5646 5642 5637 5633 5629 5626 5622 5619 5615 5611 5608 5605 5603 5601 5598 5596 5593 5591 5590 5590 5589 5588